Regional Weather Roundup
Issued by NWS Midland/Odessa, TX

Home | Current Version | Previous Version | Text Only | Print | Product List | Glossary On
Versions: 1 2 3 4 5 6 7 8 9 10 11 12 13 14 15 16 17 18 19 20 21 22 23 24 25 26 27 28 29 30 31 32 33 34 35 36 37 38 39 40 41 42 43 44 45 46 47 48 49 50
000
ASUS44 KMAF 312110
RWRMAF
MIDLAND AREA WEATHER ROUNDUP
NATIONAL WEATHER SERVICE MIDLAND TX
400 PM CDT THU JUL 31 2014

...IN SOUTHWEST TEXAS AND SOUTHEAST NEW MEXICO...

CITY           SKY/WX    TMP DP  RH WIND       PRES   REMARKS
ALPINE         CLOUDY    74  60  60 NE7       30.28F
ANDREWS        FAIR      81  56  41 NE9G18    30.15F
ARTESIA        PTSUNNY   75  64  69 S10       30.18F
BIG SPRING     MOSUNNY   84  56  38 NE9G16    30.13F
CARLSBAD       PTSUNNY   74  62  66 W6        30.16F
DRYDEN           N/A     94  63  35 NE9G20    30.04F
FORT STOCKTON  PTSUNNY   81  61  50 N8        30.14F
GUAD PASS      LGT RAIN  61  60  97 NE28      30.26F VSB 1/2
HOBBS          PTSUNNY   81  55  41 N8        30.18F
MARFA          MOSUNNY   79  61  53 NE13      30.24F
MIDLAND AIRPK  MOSUNNY   82  58  44 NE8       30.14F
MIDLAND INTL   MOSUNNY   81  59  47 NE9       30.13F
ODESSA         MOSUNNY   83  57  41 VRB7      30.14F
PECOS          MOSUNNY   81  60  48 CALM      30.12F
PRESIDIO       FAIR      97  60  29 NE9       30.03F
SEMINOLE       PTSUNNY   83  53  35 N3        30.17F HAZE
SNYDER         MOSUNNY   80  61  52 NE9       30.11F
WINK           MOSUNNY   83  61  47 CALM      30.11F
$$
...OTHER STATIONS IN TEXAS...

CITY           SKY/WX    TMP DP  RH WIND       PRES   REMARKS
ABILENE        CLOUDY    79  64  60 N16G22    30.08F
AMARILLO       SUNNY     79  51  37 NE13G21   30.20F
AUSTIN         PTSUNNY   94  72  48 VRB5      29.93F HX 102
BROWNSVILLE    SUNNY     95  74  50 SE15G26   29.91F HX 105
CORPUS CHRISTI MOSUNNY   97  74  47 SE18G25   29.91S HX 108
DALLAS FTW     CLOUDY    78  66  66 N14       29.99S
DEL RIO        MOSUNNY   97  68  38 VRB3      29.94F HX 102
EL PASO        FAIR      87  57  35 S7        30.12F
HOUSTON INT    PTSUNNY   94  72  48 CALM      29.92F HX 102
LUBBOCK        PTSUNNY   82  53  36 E6        30.15F
SAN ANGELO     PTSUNNY   84  63  49 N8        30.07F
SAN ANTONIO    PTSUNNY   93  69  45 CALM      29.94F
WACO           CLOUDY    87  68  52 NW13      29.96F
WICHITA FALLS  NOT AVBL
$$
...OTHER LOCATIONS IN NEW MEXICO...

CITY           SKY/WX    TMP DP  RH WIND       PRES   REMARKS
ALAMAGORDO     MOSUNNY   84  55  37 S7        30.14F
ALBUQUERQUE    PTSUNNY   80  57  45 VRB3      30.20F
CANNON AFB     PTSUNNY   78  51  37 NE8       30.21F
CLOVIS         NOT AVBL
HOLLOMAN AFB   MOSUNNY   84  61  45 CALM      30.13F
ROSWELL        MOSUNNY   81  61  50 CALM      30.16F
RUIDOSO        PTSUNNY   72  59  64 SE14      30.35F
SANTA FE         N/A     74  56  53 VRB6      30.26F
TRUTH OR CONSE FAIR      85  55  35 S7        30.14F
TUCUMCARI      SUNNY     80  49  33 VRB7      30.19F
$$



USA.gov is the U.S. government's official web portal to all federal, state and local government web resources and services.